Time,TemperatureF,DewpointF,PressureIn,WindDirection,WindDirectionDegrees,WindSpeedMPH,WindSpeedGustMPH,Humidity,HourlyPrecipIn,Conditions,Clouds,dailyrainin,SoftwareType,DateUTC
2013-07-13 00:00:00,67.7,63.0,30.16,NE,43,0.0,-999.0,86,-99.99,,,0.00,ADS-WS1 bash script,2013-07-13 04:00:00,
2013-07-13 00:05:00,67.5,64.0,30.16,NE,36,0.0,-999.0,87,-99.99,,,0.00,ADS-WS1 bash script,2013-07-13 04:05:00,
2013-07-13 00:10:00,67.5,64.0,30.16,North,354,0.0,-999.0,87,-99.99,,,0.00,ADS-WS1 bash script,2013-07-13 04:10:00,
2013-07-13 00:15:00,67.3,63.0,30.16,NE,43,0.0,-999.0,87,-99.99,,,0.00,ADS-WS1 bash script,2013-07-13 04:15:00,
2013-07-13 00:20:00,67.3,63.0,30.16,NNW,331,1.0,-999.0,87,-99.99,,,0.00,ADS-WS1 bash script,2013-07-13 04:20:00,
2013-07-13 00:25:00,67.2,63.0,30.16,NNW,335,0.0,-999.0,87,-99.99,,,0.00,ADS-WS1 bash script,2013-07-13 04:25:00,
2013-07-13 00:30:00,67.0,63.0,30.16,NW,313,0.0,-999.0,87,-99.99,,,0.00,ADS-WS1 bash script,2013-07-13 04:30:00,
2013-07-13 00:35:00,66.8,63.0,30.16,North,0,0.0,-999.0,87,-99.99,,,0.00,ADS-WS1 bash script,2013-07-13 04:35:00,
2013-07-13 00:40:00,66.6,63.0,30.16,North,0,0.0,-999.0,87,-99.99,,,0.00,ADS-WS1 bash script,2013-07-13 04:40:00,
2013-07-13 00:45:00,66.6,63.0,30.16,North,0,1.0,-999.0,88,-99.99,,,0.00,ADS-WS1 bash script,2013-07-13 04:45:00,
2013-07-13 00:50:00,66.5,62.0,30.16,NW,324,0.0,-999.0,87,-99.99,,,0.00,ADS-WS1 bash script,2013-07-13 04:50:00,
2013-07-13 00:55:00,66.3,62.0,30.16,North,0,0.0,-999.0,88,-99.99,,,0.00,ADS-WS1 bash script,2013-07-13 04:55:00,
2013-07-13 01:00:00,66.3,62.0,30.16,North,0,0.0,-999.0,88,-99.99,,,0.00,ADS-WS1 bash script,2013-07-13 05:00:00,
2013-07-13 01:05:00,66.1,63.0,30.16,NE,43,0.0,-999.0,89,-99.99,,,0.00,ADS-WS1 bash script,2013-07-13 05:05:00,
2013-07-13 01:10:00,66.1,63.0,30.16,NE,43,0.0,-999.0,89,-99.99,,,0.00,ADS-WS1 bash script,2013-07-13 05:10:00,
2013-07-13 01:20:00,65.9,62.0,30.16,NE,43,0.0,-999.0,88,-99.99,,,0.00,ADS-WS1 bash script,2013-07-13 05:20:00,
2013-07-13 01:25:00,65.7,62.0,30.16,North,0,0.0,-999.0,88,-99.99,,,0.00,ADS-WS1 bash script,2013-07-13 05:25:00,
2013-07-13 01:30:00,65.7,62.0,30.16,North,0,0.0,-999.0,88,-99.99,,,0.00,ADS-WS1 bash script,2013-07-13 05:30:00,
2013-07-13 01:35:00,65.6,62.0,30.15,NE,43,0.0,-999.0,87,-99.99,,,0.00,ADS-WS1 bash script,2013-07-13 05:35:00,
2013-07-13 01:40:00,65.6,62.0,30.15,NE,43,0.0,-999.0,87,-99.99,,,0.00,ADS-WS1 bash script,2013-07-13 05:40:00,
2013-07-13 01:50:00,65.2,61.0,30.15,NE,43,0.0,-999.0,87,-99.99,,,0.00,ADS-WS1 bash script,2013-07-13 05:50:00,
2013-07-13 01:55:00,65.2,61.0,30.15,NW,324,0.0,-999.0,88,-99.99,,,0.00,ADS-WS1 bash script,2013-07-13 05:55:00,
2013-07-13 02:00:00,65.0,61.0,30.15,North,0,1.0,-999.0,88,-99.99,,,0.00,ADS-WS1 bash script,2013-07-13 06:00:00,
2013-07-13 02:05:00,65.0,61.0,30.16,North,9,1.0,-999.0,87,-99.99,,,0.00,ADS-WS1 bash script,2013-07-13 06:05:00,
2013-07-13 02:10:00,64.8,61.0,30.15,NE,43,0.0,-999.0,87,-99.99,,,0.00,ADS-WS1 bash script,2013-07-13 06:10:00,
2013-07-13 02:15:00,64.7,61.0,30.15,NE,43,1.0,-999.0,87,-99.99,,,0.00,ADS-WS1 bash script,2013-07-13 06:15:00,
2013-07-13 02:20:00,64.7,61.0,30.15,NE,36,1.0,-999.0,87,-99.99,,,0.00,ADS-WS1 bash script,2013-07-13 06:20:00,
2013-07-13 02:25:00,64.7,61.0,30.15,NE,43,1.0,-999.0,87,-99.99,,,0.00,ADS-WS1 bash script,2013-07-13 06:25:00,
2013-07-13 02:30:00,64.5,60.0,30.16,NE,43,1.0,-999.0,87,-99.99,,,0.00,ADS-WS1 bash script,2013-07-13 06:30:00,
2013-07-13 02:40:00,64.3,60.0,30.16,NE,43,0.0,-999.0,87,-99.99,,,0.00,ADS-WS1 bash script,2013-07-13 06:40:00,
2013-07-13 02:45:00,64.1,59.0,30.16,NE,43,0.0,-999.0,86,-99.99,,,0.00,ADS-WS1 bash script,2013-07-13 06:45:00,
2013-07-13 02:50:00,63.9,60.0,30.16,NE,43,0.0,-999.0,87,-99.99,,,0.00,ADS-WS1 bash script,2013-07-13 06:50:00,
2013-07-13 02:55:00,63.9,60.0,30.16,NE,43,0.0,-999.0,87,-99.99,,,0.00,ADS-WS1 bash script,2013-07-13 06:55:00,
2013-07-13 03:00:00,63.8,60.0,30.15,NE,43,0.0,-999.0,87,-99.99,,,0.00,ADS-WS1 bash script,2013-07-13 07:00:00,
2013-07-13 03:05:00,63.8,60.0,30.16,NE,43,0.0,-999.0,87,-99.99,,,0.00,ADS-WS1 bash script,2013-07-13 07:05:00,
2013-07-13 03:10:00,63.6,60.0,30.16,North,0,0.0,-999.0,87,-99.99,,,0.00,ADS-WS1 bash script,2013-07-13 07:10:00,
2013-07-13 03:15:00,63.6,60.0,30.16,NE,43,0.0,-999.0,87,-99.99,,,0.00,ADS-WS1 bash script,2013-07-13 07:15:00,
2013-07-13 03:20:00,63.4,59.0,30.16,NE,43,1.0,-999.0,88,-99.99,,,0.00,ADS-WS1 bash script,2013-07-13 07:20:00,
2013-07-13 03:25:00,63.2,59.0,30.16,NE,43,0.0,-999.0,88,-99.99,,,0.00,ADS-WS1 bash script,2013-07-13 07:25:00,
2013-07-13 03:30:00,63.2,59.0,30.16,NE,43,1.0,-999.0,88,-99.99,,,0.00,ADS-WS1 bash script,2013-07-13 07:30:00,
2013-07-13 03:40:00,62.9,59.0,30.16,NE,43,0.0,-999.0,88,-99.99,,,0.00,ADS-WS1 bash script,2013-07-13 07:40:00,
2013-07-13 03:45:00,62.9,60.0,30.16,NNE,29,2.0,-999.0,89,-99.99,,,0.00,ADS-WS1 bash script,2013-07-13 07:45:00,
2013-07-13 03:50:00,62.7,60.0,30.16,NNE,21,1.0,-999.0,89,-99.99,,,0.00,ADS-WS1 bash script,2013-07-13 07:50:00,
2013-07-13 03:55:00,62.7,60.0,30.17,NE,43,2.0,-999.0,90,-99.99,,,0.00,ADS-WS1 bash script,2013-07-13 07:55:00,
2013-07-13 04:00:00,62.7,60.0,30.16,NE,43,0.0,-999.0,89,-99.99,,,0.00,ADS-WS1 bash script,2013-07-13 08:00:00,
2013-07-13 04:10:00,62.5,59.0,30.15,NNW,348,1.0,-999.0,90,-99.99,,,0.00,ADS-WS1 bash script,2013-07-13 08:10:00,
2013-07-13 04:15:00,62.5,59.0,30.15,NNE,32,2.0,-999.0,90,-99.99,,,0.00,ADS-WS1 bash script,2013-07-13 08:15:00,
2013-07-13 04:20:00,62.5,59.0,30.16,North,8,3.0,-999.0,90,-99.99,,,0.00,ADS-WS1 bash script,2013-07-13 08:20:00,
2013-07-13 04:25:00,62.5,59.0,30.16,NNE,33,1.0,-999.0,90,-99.99,,,0.00,ADS-WS1 bash script,2013-07-13 08:25:00,
2013-07-13 04:30:00,62.3,59.0,30.16,NNW,348,0.0,-999.0,90,-99.99,,,0.00,ADS-WS1 bash script,2013-07-13 08:30:00,
2013-07-13 04:35:00,62.3,59.0,30.16,NNE,26,2.0,-999.0,90,-99.99,,,0.00,ADS-WS1 bash script,2013-07-13 08:35:00,
2013-07-13 04:40:00,62.1,59.0,30.17,NNE,15,2.0,-999.0,90,-99.99,,,0.00,ADS-WS1 bash script,2013-07-13 08:40:00,
2013-07-13 04:45:00,62.0,59.0,30.17,North,11,0.0,-999.0,91,-99.99,,,0.00,ADS-WS1 bash script,2013-07-13 08:45:00,
2013-07-13 04:50:00,62.1,60.0,30.17,NE,38,2.0,-999.0,92,-99.99,,,0.00,ADS-WS1 bash script,2013-07-13 08:50:00,
2013-07-13 04:55:00,62.0,60.0,30.17,NE,43,1.0,-999.0,92,-99.99,,,0.00,ADS-WS1 bash script,2013-07-13 08:55:00,
2013-07-13 05:00:00,62.0,59.0,30.17,NE,43,0.0,-999.0,91,-99.99,,,0.00,ADS-WS1 bash script,2013-07-13 09:00:00,
2013-07-13 05:05:00,62.0,59.0,30.17,NE,43,0.0,-999.0,91,-99.99,,,0.00,ADS-WS1 bash script,2013-07-13 09:05:00,
2013-07-13 05:10:00,62.0,60.0,30.17,NNE,21,1.0,-999.0,92,-99.99,,,0.00,ADS-WS1 bash script,2013-07-13 09:10:00,
2013-07-13 05:15:00,62.0,60.0,30.17,NE,43,1.0,-999.0,92,-99.99,,,0.00,ADS-WS1 bash script,2013-07-13 09:15:00,
2013-07-13 05:20:00,62.0,60.0,30.17,NE,39,1.0,-999.0,92,-99.99,,,0.00,ADS-WS1 bash script,2013-07-13 09:20:00,
2013-07-13 05:25:00,62.0,60.0,30.17,NNE,26,1.0,-999.0,93,-99.99,,,0.00,ADS-WS1 bash script,2013-07-13 09:25:00,
2013-07-13 05:30:00,62.0,60.0,30.18,NNE,15,2.0,-999.0,93,-99.99,,,0.00,ADS-WS1 bash script,2013-07-13 09:30:00,
2013-07-13 05:35:00,62.0,60.0,30.17,NNE,22,1.0,-999.0,92,-99.99,,,0.00,ADS-WS1 bash script,2013-07-13 09:35:00,
2013-07-13 05:40:00,62.0,60.0,30.18,North,350,2.0,-999.0,93,-99.99,,,0.00,ADS-WS1 bash script,2013-07-13 09:40:00,
2013-07-13 05:45:00,62.0,60.0,30.18,NE,43,2.0,-999.0,92,-99.99,,,0.00,ADS-WS1 bash script,2013-07-13 09:45:00,
2013-07-13 05:55:00,62.0,60.0,30.19,North,0,1.0,-999.0,93,-99.99,,,0.00,ADS-WS1 bash script,2013-07-13 09:55:00,
2013-07-13 06:00:00,62.0,60.0,30.19,North,4,0.0,-999.0,92,-99.99,,,0.00,ADS-WS1 bash script,2013-07-13 10:00:00,
2013-07-13 06:05:00,62.0,60.0,30.19,NNE,22,1.0,-999.0,93,-99.99,,,0.00,ADS-WS1 bash script,2013-07-13 10:05:00,
2013-07-13 06:10:00,62.1,60.0,30.19,NE,43,2.0,-999.0,93,-99.99,,,0.00,ADS-WS1 bash script,2013-07-13 10:10:00,
2013-07-13 06:15:00,62.1,60.0,30.19,WNW,290,3.0,-999.0,93,-99.99,,,0.00,ADS-WS1 bash script,2013-07-13 10:15:00,
2013-07-13 06:25:00,62.3,60.0,30.19,NE,43,2.0,-999.0,93,-99.99,,,0.00,ADS-WS1 bash script,2013-07-13 10:25:00,
2013-07-13 06:30:00,62.5,60.0,30.19,NE,39,2.0,-999.0,93,-99.99,,,0.00,ADS-WS1 bash script,2013-07-13 10:30:00,
2013-07-13 06:35:00,62.5,60.0,30.19,NNE,25,2.0,-999.0,93,-99.99,,,0.00,ADS-WS1 bash script,2013-07-13 10:35:00,
2013-07-13 06:45:00,62.7,61.0,30.19,NE,43,1.0,-999.0,93,-99.99,,,0.00,ADS-WS1 bash script,2013-07-13 10:45:00,
2013-07-13 06:50:00,62.9,61.0,30.19,North,0,2.0,-999.0,93,-99.99,,,0.00,ADS-WS1 bash script,2013-07-13 10:50:00,
2013-07-13 06:55:00,63.0,61.0,30.19,NE,43,2.0,-999.0,93,-99.99,,,0.00,ADS-WS1 bash script,2013-07-13 10:55:00,
2013-07-13 07:00:00,63.2,61.0,30.19,NE,43,0.0,-999.0,92,-99.99,,,0.00,ADS-WS1 bash script,2013-07-13 11:00:00,
2013-07-13 07:05:00,63.4,61.0,30.19,North,0,1.0,-999.0,92,-99.99,,,0.00,ADS-WS1 bash script,2013-07-13 11:05:00,
2013-07-13 07:10:00,63.8,62.0,30.19,NE,53,1.0,-999.0,93,-99.99,,,0.00,ADS-WS1 bash script,2013-07-13 11:10:00,
2013-07-13 07:20:00,64.3,62.0,30.19,NNE,32,1.0,-999.0,92,-99.99,,,0.00,ADS-WS1 bash script,2013-07-13 11:20:00,
2013-07-13 07:25:00,64.7,62.0,30.19,NE,43,2.0,-999.0,91,-99.99,,,0.00,ADS-WS1 bash script,2013-07-13 11:25:00,
2013-07-13 07:30:00,65.0,62.0,30.19,East,100,3.0,-999.0,91,-99.99,,,0.00,ADS-WS1 bash script,2013-07-13 11:30:00,
2013-07-13 07:35:00,65.4,62.0,30.19,ENE,66,0.0,-999.0,91,-99.99,,,0.00,ADS-WS1 bash script,2013-07-13 11:35:00,
2013-07-13 07:40:00,65.7,63.0,30.19,NE,43,0.0,-999.0,90,-99.99,,,0.00,ADS-WS1 bash script,2013-07-13 11:40:00,
2013-07-13 07:50:00,66.5,63.0,30.19,East,95,1.0,-999.0,90,-99.99,,,0.00,ADS-WS1 bash script,2013-07-13 11:50:00,
2013-07-13 07:55:00,66.6,64.0,30.19,ESE,121,1.0,-999.0,90,-99.99,,,0.00,ADS-WS1 bash script,2013-07-13 11:55:00,
2013-07-13 08:00:00,67.0,64.0,30.19,East,95,4.0,-999.0,89,-99.99,,,0.00,ADS-WS1 bash script,2013-07-13 12:00:00,
2013-07-13 08:05:00,67.3,63.0,30.19,SE,125,2.0,-999.0,88,-99.99,,,0.00,ADS-WS1 bash script,2013-07-13 12:05:00,
2013-07-13 08:10:00,67.5,65.0,30.20,ENE,62,1.0,-999.0,89,-99.99,,,0.00,ADS-WS1 bash script,2013-07-13 12:10:00,
2013-07-13 08:15:00,67.9,65.0,30.20,ENE,77,1.0,-999.0,89,-99.99,,,0.00,ADS-WS1 bash script,2013-07-13 12:15:00,
2013-07-13 08:20:00,68.2,65.0,30.20,ENE,59,1.0,-999.0,89,-99.99,,,0.00,ADS-WS1 bash script,2013-07-13 12:20:00,
2013-07-13 08:25:00,68.6,65.0,30.19,SE,134,0.0,-999.0,88,-99.99,,,0.00,ADS-WS1 bash script,2013-07-13 12:25:00,
2013-07-13 08:30:00,69.0,65.0,30.21,SW,234,2.0,-999.0,88,-99.99,,,0.00,ADS-WS1 bash script,2013-07-13 12:30:00,
2013-07-13 08:35:00,69.3,65.0,30.20,East,94,1.0,-999.0,88,-99.99,,,0.00,ADS-WS1 bash script,2013-07-13 12:35:00,
2013-07-13 08:40:00,69.7,66.0,30.20,East,88,1.0,-999.0,87,-99.99,,,0.00,ADS-WS1 bash script,2013-07-13 12:40:00,
2013-07-13 08:45:00,69.9,66.0,30.21,ESE,121,3.0,-999.0,87,-99.99,,,0.00,ADS-WS1 bash script,2013-07-13 12:45:00,
2013-07-13 08:50:00,70.2,66.0,30.20,NE,47,1.0,-999.0,87,-99.99,,,0.00,ADS-WS1 bash script,2013-07-13 12:50:00,
2013-07-13 08:55:00,70.6,66.0,30.20,East,88,0.0,-999.0,86,-99.99,,,0.00,ADS-WS1 bash script,2013-07-13 12:55:00,
2013-07-13 09:00:00,70.9,66.0,30.20,ENE,70,2.0,-999.0,84,-99.99,,,0.00,ADS-WS1 bash script,2013-07-13 13:00:00,
2013-07-13 09:05:00,71.1,65.0,30.19,NE,53,2.0,-999.0,83,-99.99,,,0.00,ADS-WS1 bash script,2013-07-13 13:05:00,
2013-07-13 09:15:00,71.7,66.0,30.19,SE,129,2.0,-999.0,82,-99.99,,,0.00,ADS-WS1 bash script,2013-07-13 13:15:00,
2013-07-13 09:20:00,72.2,65.0,30.20,East,80,5.0,-999.0,80,-99.99,,,0.00,ADS-WS1 bash script,2013-07-13 13:20:00,
2013-07-13 09:25:00,72.4,65.0,30.20,ENE,66,0.0,-999.0,80,-99.99,,,0.00,ADS-WS1 bash script,2013-07-13 13:25:00,
2013-07-13 09:35:00,73.3,65.0,30.20,ESE,111,5.0,-999.0,76,-99.99,,,0.00,ADS-WS1 bash script,2013-07-13 13:35:00,
2013-07-13 09:40:00,73.6,66.0,30.20,East,100,2.0,-999.0,76,-99.99,,,0.00,ADS-WS1 bash script,2013-07-13 13:40:00,
2013-07-13 09:50:00,74.9,66.0,30.20,NE,43,2.0,-999.0,73,-99.99,,,0.00,ADS-WS1 bash script,2013-07-13 13:50:00,
2013-07-13 09:55:00,75.8,66.0,30.20,SE,129,5.0,-999.0,71,-99.99,,,0.00,ADS-WS1 bash script,2013-07-13 13:55:00,
2013-07-13 10:00:00,75.8,65.0,30.20,East,94,3.0,-999.0,68,-99.99,,,0.00,ADS-WS1 bash script,2013-07-13 14:00:00,
2013-07-13 10:05:00,76.3,65.0,30.21,South,179,2.0,-999.0,69,-99.99,,,0.00,ADS-WS1 bash script,2013-07-13 14:05:00,
2013-07-13 10:10:00,76.7,67.0,30.21,NE,46,3.0,-999.0,70,-99.99,,,0.00,ADS-WS1 bash script,2013-07-13 14:10:00,
2013-07-13 10:15:00,76.3,65.0,30.21,ESE,108,2.0,-999.0,67,-99.99,,,0.00,ADS-WS1 bash script,2013-07-13 14:15:00,
2013-07-13 10:20:00,76.7,66.0,30.20,ESE,104,1.0,-999.0,68,-99.99,,,0.00,ADS-WS1 bash script,2013-07-13 14:20:00,
2013-07-13 10:25:00,76.7,65.0,30.20,SE,125,5.0,-999.0,66,-99.99,,,0.00,ADS-WS1 bash script,2013-07-13 14:25:00,
2013-07-13 10:30:00,77.4,65.0,30.20,ESE,104,2.0,-999.0,66,-99.99,,,0.00,ADS-WS1 bash script,2013-07-13 14:30:00,
2013-07-13 10:35:00,77.2,65.0,30.20,ESE,115,2.0,-999.0,65,-99.99,,,0.00,ADS-WS1 bash script,2013-07-13 14:35:00,
2013-07-13 10:40:00,78.3,66.0,30.20,NNE,21,2.0,-999.0,65,-99.99,,,0.00,ADS-WS1 bash script,2013-07-13 14:40:00,
2013-07-13 10:45:00,78.7,66.0,30.20,NE,46,2.0,-999.0,63,-99.99,,,0.00,ADS-WS1 bash script,2013-07-13 14:45:00,
2013-07-13 10:50:00,79.2,66.0,30.20,SSE,165,1.0,-999.0,63,-99.99,,,0.00,ADS-WS1 bash script,2013-07-13 14:50:00,
2013-07-13 10:55:00,78.8,65.0,30.20,East,98,6.0,-999.0,59,-99.99,,,0.00,ADS-WS1 bash script,2013-07-13 14:55:00,
2013-07-13 11:00:00,79.4,65.0,30.20,SSE,149,1.0,-999.0,60,-99.99,,,0.00,ADS-WS1 bash script,2013-07-13 15:00:00,
2013-07-13 11:05:00,79.4,63.0,30.19,ENE,71,2.0,-999.0,55,-99.99,,,0.00,ADS-WS1 bash script,2013-07-13 15:05:00,
2013-07-13 11:10:00,79.4,63.0,30.20,East,94,2.0,-999.0,55,-99.99,,,0.00,ADS-WS1 bash script,2013-07-13 15:10:00,
2013-07-13 11:15:00,78.5,62.0,30.20,East,86,3.0,-999.0,54,-99.99,,,0.00,ADS-WS1 bash script,2013-07-13 15:15:00,
2013-07-13 11:20:00,79.2,63.0,30.20,ENE,77,2.0,-999.0,55,-99.99,,,0.00,ADS-WS1 bash script,2013-07-13 15:20:00,
2013-07-13 11:25:00,80.1,63.0,30.20,East,93,2.0,-999.0,52,-99.99,,,0.00,ADS-WS1 bash script,2013-07-13 15:25:00,
2013-07-13 11:35:00,79.9,63.0,30.20,NE,43,3.0,-999.0,51,-99.99,,,0.00,ADS-WS1 bash script,2013-07-13 15:35:00,
2013-07-13 11:40:00,80.6,64.0,30.20,ESE,111,3.0,-999.0,52,-99.99,,,0.00,ADS-WS1 bash script,2013-07-13 15:40:00,
2013-07-13 11:45:00,80.3,62.0,30.20,East,80,3.0,-999.0,48,-99.99,,,0.00,ADS-WS1 bash script,2013-07-13 15:45:00,
2013-07-13 11:50:00,81.4,63.0,30.20,South,179,2.0,-999.0,50,-99.99,,,0.00,ADS-WS1 bash script,2013-07-13 15:50:00,
2013-07-13 11:55:00,80.8,63.0,30.20,SE,134,5.0,-999.0,49,-99.99,,,0.00,ADS-WS1 bash script,2013-07-13 15:55:00,
2013-07-13 12:00:00,80.6,63.0,30.20,East,86,3.0,-999.0,48,-99.99,,,0.00,ADS-WS1 bash script,2013-07-13 16:00:00,
2013-07-13 12:05:00,81.0,63.0,30.19,NE,53,3.0,-999.0,50,-99.99,,,0.00,ADS-WS1 bash script,2013-07-13 16:05:00,
2013-07-13 12:15:00,81.2,63.0,30.19,NE,43,2.0,-999.0,48,-99.99,,,0.00,ADS-WS1 bash script,2013-07-13 16:15:00,
2013-07-13 12:20:00,81.7,64.0,30.20,East,88,3.0,-999.0,49,-99.99,,,0.00,ADS-WS1 bash script,2013-07-13 16:20:00,
2013-07-13 12:25:00,81.9,65.0,30.20,NW,324,0.0,-999.0,51,-99.99,,,0.00,ADS-WS1 bash script,2013-07-13 16:25:00,
2013-07-13 12:35:00,81.2,62.0,30.20,North,0,1.0,-999.0,47,-99.99,,,0.00,ADS-WS1 bash script,2013-07-13 16:35:00,
2013-07-13 12:40:00,82.3,65.0,30.20,SSE,156,3.0,-999.0,52,-99.99,,,0.00,ADS-WS1 bash script,2013-07-13 16:40:00,
2013-07-13 12:45:00,82.6,64.0,30.20,North,4,2.0,-999.0,47,-99.99,,,0.00,ADS-WS1 bash script,2013-07-13 16:45:00,
2013-07-13 12:50:00,82.1,62.0,30.20,WNW,283,1.0,-999.0,44,-99.99,,,0.00,ADS-WS1 bash script,2013-07-13 16:50:00,
2013-07-13 12:55:00,82.4,63.0,30.20,South,179,2.0,-999.0,47,-99.99,,,0.00,ADS-WS1 bash script,2013-07-13 16:55:00,
2013-07-13 13:00:00,82.4,63.0,30.20,SSE,156,1.0,-999.0,46,-99.99,,,0.00,ADS-WS1 bash script,2013-07-13 17:00:00,
2013-07-13 13:05:00,82.4,62.0,30.20,SSE,156,9.0,-999.0,44,-99.99,,,0.00,ADS-WS1 bash script,2013-07-13 17:05:00,
2013-07-13 13:10:00,81.7,63.0,30.20,SE,134,5.0,-999.0,45,-99.99,,,0.00,ADS-WS1 bash script,2013-07-13 17:10:00,
2013-07-13 13:15:00,82.4,64.0,30.20,SE,145,3.0,-999.0,48,-99.99,,,0.00,ADS-WS1 bash script,2013-07-13 17:15:00,
2013-07-13 13:20:00,82.3,63.0,30.20,SSE,149,11.0,-999.0,47,-99.99,,,0.00,ADS-WS1 bash script,2013-07-13 17:20:00,
2013-07-13 13:25:00,82.4,65.0,30.20,ESE,111,1.0,-999.0,52,-99.99,,,0.00,ADS-WS1 bash script,2013-07-13 17:25:00,
2013-07-13 13:30:00,82.4,64.0,30.20,WSW,238,2.0,-999.0,48,-99.99,,,0.00,ADS-WS1 bash script,2013-07-13 17:30:00,
2013-07-13 13:35:00,83.0,65.0,30.19,North,0,2.0,-999.0,49,-99.99,,,0.00,ADS-WS1 bash script,2013-07-13 17:35:00,
2013-07-13 13:40:00,83.0,64.0,30.20,NE,43,1.0,-999.0,47,-99.99,,,0.00,ADS-WS1 bash script,2013-07-13 17:40:00,
2013-07-13 13:45:00,82.6,65.0,30.20,ENE,59,4.0,-999.0,48,-99.99,,,0.00,ADS-WS1 bash script,2013-07-13 17:45:00,
2013-07-13 13:50:00,82.8,65.0,30.20,SSW,208,3.0,-999.0,49,-99.99,,,0.00,ADS-WS1 bash script,2013-07-13 17:50:00,
2013-07-13 13:55:00,83.2,67.0,30.20,North,9,1.0,-999.0,53,-99.99,,,0.00,ADS-WS1 bash script,2013-07-13 17:55:00,
2013-07-13 14:00:00,82.8,65.0,30.20,East,88,0.0,-999.0,48,-99.99,,,0.00,ADS-WS1 bash script,2013-07-13 18:00:00,
2013-07-13 14:05:00,83.0,64.0,30.20,NNE,32,2.0,-999.0,47,-99.99,,,0.00,ADS-WS1 bash script,2013-07-13 18:05:00,
2013-07-13 14:10:00,82.8,65.0,30.20,ESE,117,1.0,-999.0,49,-99.99,,,0.00,ADS-WS1 bash script,2013-07-13 18:10:00,
2013-07-13 14:15:00,83.2,65.0,30.19,SE,136,2.0,-999.0,50,-99.99,,,0.00,ADS-WS1 bash script,2013-07-13 18:15:00,
2013-07-13 14:25:00,82.1,65.0,30.20,ENE,71,3.0,-999.0,51,-99.99,,,0.00,ADS-WS1 bash script,2013-07-13 18:25:00,
2013-07-13 14:30:00,82.1,65.0,30.19,SE,142,2.0,-999.0,51,-99.99,,,0.00,ADS-WS1 bash script,2013-07-13 18:30:00,
2013-07-13 14:35:00,81.7,65.0,30.20,NE,55,2.0,-999.0,51,-99.99,,,0.00,ADS-WS1 bash script,2013-07-13 18:35:00,
2013-07-13 14:40:00,82.1,65.0,30.19,ESE,111,2.0,-999.0,52,-99.99,,,0.00,ADS-WS1 bash script,2013-07-13 18:40:00,
2013-07-13 14:45:00,82.6,65.0,30.19,East,93,2.0,-999.0,50,-99.99,,,0.00,ADS-WS1 bash script,2013-07-13 18:45:00,
2013-07-13 14:50:00,83.5,67.0,30.20,WNW,290,1.0,-999.0,51,-99.99,,,0.00,ADS-WS1 bash script,2013-07-13 18:50:00,
2013-07-13 14:55:00,82.8,66.0,30.20,SE,141,4.0,-999.0,51,-99.99,,,0.00,ADS-WS1 bash script,2013-07-13 18:55:00,
2013-07-13 15:00:00,83.0,67.0,30.20,SSE,152,5.0,-999.0,53,-99.99,,,0.00,ADS-WS1 bash script,2013-07-13 19:00:00,
2013-07-13 15:05:00,83.7,66.0,30.19,SE,134,0.0,-999.0,50,-99.99,,,0.00,ADS-WS1 bash script,2013-07-13 19:05:00,
2013-07-13 15:15:00,82.4,64.0,30.19,SE,145,5.0,-999.0,50,-99.99,,,0.00,ADS-WS1 bash script,2013-07-13 19:15:00,
2013-07-13 15:20:00,81.4,64.0,30.19,SE,134,6.0,-999.0,52,-99.99,,,0.00,ADS-WS1 bash script,2013-07-13 19:20:00,
2013-07-13 15:25:00,82.1,66.0,30.19,SE,142,2.0,-999.0,55,-99.99,,,0.00,ADS-WS1 bash script,2013-07-13 19:25:00,
2013-07-13 15:30:00,82.1,66.0,30.19,ENE,59,1.0,-999.0,53,-99.99,,,0.00,ADS-WS1 bash script,2013-07-13 19:30:00,
2013-07-13 15:35:00,82.1,65.0,30.19,ESE,108,2.0,-999.0,51,-99.99,,,0.00,ADS-WS1 bash script,2013-07-13 19:35:00,
2013-07-13 15:40:00,83.0,66.0,30.19,SE,142,5.0,-999.0,52,-99.99,,,0.00,ADS-WS1 bash script,2013-07-13 19:40:00,
2013-07-13 15:50:00,83.3,67.0,30.19,East,84,3.0,-999.0,55,-99.99,,,0.00,ADS-WS1 bash script,2013-07-13 19:50:00,
2013-07-13 15:55:00,83.2,67.0,30.18,SE,142,1.0,-999.0,54,-99.99,,,0.00,ADS-WS1 bash script,2013-07-13 19:55:00,
2013-07-13 16:00:00,82.6,66.0,30.19,SE,131,3.0,-999.0,52,-99.99,,,0.00,ADS-WS1 bash script,2013-07-13 20:00:00,
2013-07-13 16:05:00,83.3,65.0,30.18,East,95,0.0,-999.0,50,-99.99,,,0.00,ADS-WS1 bash script,2013-07-13 20:05:00,
2013-07-13 16:10:00,84.4,68.0,30.18,SSE,149,2.0,-999.0,54,-99.99,,,0.00,ADS-WS1 bash script,2013-07-13 20:10:00,
2013-07-13 16:15:00,84.4,68.0,30.18,ESE,118,2.0,-999.0,53,-99.99,,,0.00,ADS-WS1 bash script,2013-07-13 20:15:00,
2013-07-13 16:25:00,84.2,68.0,30.18,WNW,299,0.0,-999.0,53,-99.99,,,0.00,ADS-WS1 bash script,2013-07-13 20:25:00,
2013-07-13 16:30:00,83.7,66.0,30.17,SSE,151,3.0,-999.0,50,-99.99,,,0.00,ADS-WS1 bash script,2013-07-13 20:30:00,
2013-07-13 16:35:00,83.2,67.0,30.18,SE,128,1.0,-999.0,53,-99.99,,,0.00,ADS-WS1 bash script,2013-07-13 20:35:00,
2013-07-13 16:40:00,84.4,68.0,30.17,NE,46,1.0,-999.0,54,-99.99,,,0.00,ADS-WS1 bash script,2013-07-13 20:40:00,
2013-07-13 16:45:00,84.2,68.0,30.17,East,84,2.0,-999.0,55,-99.99,,,0.00,ADS-WS1 bash script,2013-07-13 20:45:00,
2013-07-13 16:50:00,83.5,68.0,30.17,South,169,6.0,-999.0,53,-99.99,,,0.00,ADS-WS1 bash script,2013-07-13 20:50:00,
2013-07-13 16:55:00,83.3,66.0,30.17,SE,145,5.0,-999.0,52,-99.99,,,0.00,ADS-WS1 bash script,2013-07-13 20:55:00,
2013-07-13 17:00:00,83.3,67.0,30.18,SE,134,3.0,-999.0,54,-99.99,,,0.00,ADS-WS1 bash script,2013-07-13 21:00:00,
2013-07-13 17:05:00,83.7,68.0,30.18,SE,141,4.0,-999.0,53,-99.99,,,0.00,ADS-WS1 bash script,2013-07-13 21:05:00,
2013-07-13 17:10:00,83.9,68.0,30.18,SE,142,3.0,-999.0,53,-99.99,,,0.00,ADS-WS1 bash script,2013-07-13 21:10:00,
2013-07-13 17:15:00,84.8,69.0,30.18,ESE,122,3.0,-999.0,53,-99.99,,,0.00,ADS-WS1 bash script,2013-07-13 21:15:00,
2013-07-13 17:20:00,84.8,68.0,30.18,SE,134,4.0,-999.0,51,-99.99,,,0.00,ADS-WS1 bash script,2013-07-13 21:20:00,
2013-07-13 17:25:00,84.2,66.0,30.18,South,179,7.0,-999.0,50,-99.99,,,0.00,ADS-WS1 bash script,2013-07-13 21:25:00,
2013-07-13 17:35:00,83.7,67.0,30.18,SE,134,3.0,-999.0,52,-99.99,,,0.00,ADS-WS1 bash script,2013-07-13 21:35:00,
2013-07-13 17:40:00,83.0,67.0,30.18,South,191,2.0,-999.0,53,-99.99,,,0.00,ADS-WS1 bash script,2013-07-13 21:40:00,
2013-07-13 17:45:00,83.2,67.0,30.18,SSE,156,1.0,-999.0,55,-99.99,,,0.00,ADS-WS1 bash script,2013-07-13 21:45:00,
2013-07-13 17:50:00,83.5,68.0,30.19,ENE,60,1.0,-999.0,55,-99.99,,,0.00,ADS-WS1 bash script,2013-07-13 21:50:00,
2013-07-13 18:00:00,82.4,66.0,30.18,SE,139,4.0,-999.0,55,-99.99,,,0.00,ADS-WS1 bash script,2013-07-13 22:00:00,
2013-07-13 18:05:00,82.4,67.0,30.18,NE,36,0.0,-999.0,57,-99.99,,,0.00,ADS-WS1 bash script,2013-07-13 22:05:00,
2013-07-13 18:10:00,81.9,67.0,30.19,NNW,331,2.0,-999.0,56,-99.99,,,0.00,ADS-WS1 bash script,2013-07-13 22:10:00,
2013-07-13 18:15:00,81.4,66.0,30.18,SE,146,5.0,-999.0,56,-99.99,,,0.00,ADS-WS1 bash script,2013-07-13 22:15:00,
2013-07-13 18:20:00,81.7,67.0,30.18,East,84,3.0,-999.0,58,-99.99,,,0.00,ADS-WS1 bash script,2013-07-13 22:20:00,
2013-07-13 18:25:00,81.2,66.0,30.18,SE,142,4.0,-999.0,58,-99.99,,,0.00,ADS-WS1 bash script,2013-07-13 22:25:00,
2013-07-13 18:35:00,81.2,67.0,30.18,South,186,4.0,-999.0,59,-99.99,,,0.00,ADS-WS1 bash script,2013-07-13 22:35:00,
2013-07-13 18:40:00,81.0,67.0,30.18,SE,134,2.0,-999.0,59,-99.99,,,0.00,ADS-WS1 bash script,2013-07-13 22:40:00,
2013-07-13 18:50:00,81.0,66.0,30.18,SE,134,4.0,-999.0,58,-99.99,,,0.00,ADS-WS1 bash script,2013-07-13 22:50:00,
2013-07-13 19:00:00,81.0,67.0,30.18,SE,124,2.0,-999.0,60,-99.99,,,0.00,ADS-WS1 bash script,2013-07-13 23:00:00,
2013-07-13 19:05:00,80.8,67.0,30.18,SE,134,3.0,-999.0,61,-99.99,,,0.00,ADS-WS1 bash script,2013-07-13 23:05:00,
2013-07-13 19:10:00,81.0,67.0,30.18,WSW,237,2.0,-999.0,59,-99.99,,,0.00,ADS-WS1 bash script,2013-07-13 23:10:00,
2013-07-13 19:15:00,80.8,67.0,30.18,SE,136,3.0,-999.0,60,-99.99,,,0.00,ADS-WS1 bash script,2013-07-13 23:15:00,
2013-07-13 19:20:00,80.5,67.0,30.18,SE,134,4.0,-999.0,62,-99.99,,,0.00,ADS-WS1 bash script,2013-07-13 23:20:00,
2013-07-13 19:25:00,80.3,67.0,30.19,SE,134,3.0,-999.0,62,-99.99,,,0.00,ADS-WS1 bash script,2013-07-13 23:25:00,
2013-07-13 19:30:00,80.1,67.0,30.19,SSE,156,4.0,-999.0,63,-99.99,,,0.00,ADS-WS1 bash script,2013-07-13 23:30:00,
2013-07-13 19:35:00,79.9,67.0,30.18,SSE,156,5.0,-999.0,63,-99.99,,,0.00,ADS-WS1 bash script,2013-07-13 23:35:00,
2013-07-13 19:40:00,80.1,67.0,30.18,South,179,1.0,-999.0,63,-99.99,,,0.00,ADS-WS1 bash script,2013-07-13 23:40:00,
2013-07-13 19:45:00,79.9,67.0,30.18,East,91,1.0,-999.0,63,-99.99,,,0.00,ADS-WS1 bash script,2013-07-13 23:45:00,
2013-07-13 19:50:00,79.7,67.0,30.19,South,187,3.0,-999.0,63,-99.99,,,0.00,ADS-WS1 bash script,2013-07-13 23:50:00,
2013-07-13 20:00:00,79.4,67.0,30.19,ESE,121,3.0,-999.0,65,-99.99,,,0.00,ADS-WS1 bash script,2013-07-14 00:00:00,
2013-07-13 20:05:00,79.0,67.0,30.19,ESE,121,2.0,-999.0,65,-99.99,,,0.00,ADS-WS1 bash script,2013-07-14 00:05:00,
2013-07-13 20:10:00,79.0,67.0,30.19,East,88,3.0,-999.0,66,-99.99,,,0.00,ADS-WS1 bash script,2013-07-14 00:10:00,
2013-07-13 20:15:00,78.8,67.0,30.19,SE,134,2.0,-999.0,66,-99.99,,,0.00,ADS-WS1 bash script,2013-07-14 00:15:00,
2013-07-13 20:20:00,78.7,68.0,30.19,South,183,2.0,-999.0,68,-99.99,,,0.00,ADS-WS1 bash script,2013-07-14 00:20:00,
2013-07-13 20:25:00,78.5,67.0,30.19,South,179,2.0,-999.0,68,-99.99,,,0.00,ADS-WS1 bash script,2013-07-14 00:25:00,
2013-07-13 20:30:00,78.3,67.0,30.19,SE,134,2.0,-999.0,68,-99.99,,,0.00,ADS-WS1 bash script,2013-07-14 00:30:00,
2013-07-13 20:35:00,78.3,67.0,30.19,SE,134,2.0,-999.0,68,-99.99,,,0.00,ADS-WS1 bash script,2013-07-14 00:35:00,
2013-07-13 20:40:00,78.1,67.0,30.19,SE,134,1.0,-999.0,69,-99.99,,,0.00,ADS-WS1 bash script,2013-07-14 00:40:00,
2013-07-13 20:45:00,78.0,67.0,30.19,NW,313,0.0,-999.0,69,-99.99,,,0.00,ADS-WS1 bash script,2013-07-14 00:45:00,
2013-07-13 20:55:00,77.4,67.0,30.19,South,179,1.0,-999.0,70,-99.99,,,0.00,ADS-WS1 bash script,2013-07-14 00:55:00,
2013-07-13 21:00:00,77.2,67.0,30.19,East,83,1.0,-999.0,72,-99.99,,,0.00,ADS-WS1 bash script,2013-07-14 01:00:00,
2013-07-13 21:05:00,76.9,67.0,30.19,ESE,104,0.0,-999.0,72,-99.99,,,0.00,ADS-WS1 bash script,2013-07-14 01:05:00,
2013-07-13 21:10:00,76.7,68.0,30.19,SSE,156,2.0,-999.0,73,-99.99,,,0.00,ADS-WS1 bash script,2013-07-14 01:10:00,
2013-07-13 21:15:00,76.5,67.0,30.19,SE,134,0.0,-999.0,74,-99.99,,,0.00,ADS-WS1 bash script,2013-07-14 01:15:00,
2013-07-13 21:20:00,76.2,67.0,30.19,SW,224,2.0,-999.0,75,-99.99,,,0.00,ADS-WS1 bash script,2013-07-14 01:20:00,
2013-07-13 21:25:00,76.0,67.0,30.20,SE,142,1.0,-999.0,75,-99.99,,,0.00,ADS-WS1 bash script,2013-07-14 01:25:00,
2013-07-13 21:30:00,75.8,68.0,30.20,SE,134,0.0,-999.0,76,-99.99,,,0.00,ADS-WS1 bash script,2013-07-14 01:30:00,
2013-07-13 21:35:00,75.6,68.0,30.20,SE,134,2.0,-999.0,76,-99.99,,,0.00,ADS-WS1 bash script,2013-07-14 01:35:00,
2013-07-13 21:40:00,75.4,67.0,30.20,SE,134,0.0,-999.0,76,-99.99,,,0.00,ADS-WS1 bash script,2013-07-14 01:40:00,
2013-07-13 21:45:00,75.3,67.0,30.20,SSE,166,1.0,-999.0,76,-99.99,,,0.00,ADS-WS1 bash script,2013-07-14 01:45:00,
2013-07-13 21:50:00,74.9,67.0,30.21,SE,134,1.0,-999.0,77,-99.99,,,0.00,ADS-WS1 bash script,2013-07-14 01:50:00,
2013-07-13 21:55:00,74.7,67.0,30.21,SW,227,1.0,-999.0,77,-99.99,,,0.00,ADS-WS1 bash script,2013-07-14 01:55:00,
2013-07-13 22:00:00,74.4,67.0,30.21,South,179,1.0,-999.0,78,-99.99,,,0.00,ADS-WS1 bash script,2013-07-14 02:00:00,
2013-07-13 22:05:00,74.4,67.0,30.22,SE,134,0.0,-999.0,78,-99.99,,,0.00,ADS-WS1 bash script,2013-07-14 02:05:00,
2013-07-13 22:15:00,74.0,67.0,30.22,SE,146,2.0,-999.0,79,-99.99,,,0.00,ADS-WS1 bash script,2013-07-14 02:15:00,
2013-07-13 22:20:00,74.0,67.0,30.22,SSE,152,1.0,-999.0,80,-99.99,,,0.00,ADS-WS1 bash script,2013-07-14 02:20:00,
2013-07-13 22:25:00,73.8,67.0,30.22,SE,134,1.0,-999.0,80,-99.99,,,0.00,ADS-WS1 bash script,2013-07-14 02:25:00,
2013-07-13 22:30:00,73.6,67.0,30.22,SE,136,1.0,-999.0,80,-99.99,,,0.00,ADS-WS1 bash script,2013-07-14 02:30:00,
2013-07-13 22:35:00,73.5,68.0,30.22,SE,146,1.0,-999.0,81,-99.99,,,0.00,ADS-WS1 bash script,2013-07-14 02:35:00,
2013-07-13 22:40:00,73.3,66.0,30.22,SE,129,2.0,-999.0,80,-99.99,,,0.00,ADS-WS1 bash script,2013-07-14 02:40:00,
2013-07-13 22:45:00,73.1,67.0,30.23,SE,146,1.0,-999.0,82,-99.99,,,0.00,ADS-WS1 bash script,2013-07-14 02:45:00,
2013-07-13 22:55:00,72.7,67.0,30.23,SE,139,2.0,-999.0,83,-99.99,,,0.00,ADS-WS1 bash script,2013-07-14 02:55:00,
2013-07-13 23:00:00,72.6,67.0,30.23,East,88,1.0,-999.0,83,-99.99,,,0.00,ADS-WS1 bash script,2013-07-14 03:00:00,
2013-07-13 23:05:00,72.4,67.0,30.23,NE,43,0.0,-999.0,84,-99.99,,,0.00,ADS-WS1 bash script,2013-07-14 03:05:00,
2013-07-13 23:10:00,72.2,67.0,30.23,SE,134,0.0,-999.0,84,-99.99,,,0.00,ADS-WS1 bash script,2013-07-14 03:10:00,
2013-07-13 23:15:00,72.0,67.0,30.23,ENE,71,0.0,-999.0,84,-99.99,,,0.00,ADS-WS1 bash script,2013-07-14 03:15:00,
2013-07-13 23:20:00,71.8,67.0,30.23,ESE,115,0.0,-999.0,85,-99.99,,,0.00,ADS-WS1 bash script,2013-07-14 03:20:00,
2013-07-13 23:30:00,71.7,66.0,30.23,East,88,2.0,-999.0,83,-99.99,,,0.00,ADS-WS1 bash script,2013-07-14 03:30:00,
2013-07-13 23:40:00,71.3,65.0,30.23,SE,134,0.0,-999.0,82,-99.99,,,0.00,ADS-WS1 bash script,2013-07-14 03:40:00,
2013-07-13 23:45:00,71.3,65.0,30.23,ESE,111,1.0,-999.0,81,-99.99,,,0.00,ADS-WS1 bash script,2013-07-14 03:45:00,
2013-07-13 23:50:00,71.1,64.0,30.23,East,81,0.0,-999.0,80,-99.99,,,0.00,ADS-WS1 bash script,2013-07-14 03:50:00,
2013-07-13 23:55:00,71.1,64.0,30.24,NE,43,0.0,-999.0,80,-99.99,,,0.00,ADS-WS1 bash script,2013-07-14 03:55:00,